Location: Newark
(44.2003°N, 3.2583°E)
Time: 11:30:14
(UTC+00:00)

SR - Pass Details

Date: 28 October 2019
Orbit: 574 x 882 km, 66.7° (Epoch: 17 November)

Event Time Altitude Azimuth Distance (km) Brightness Sun altitude
Rises 05:33:01 0° 321° (NW) 3,475 - -8.7°
Exits shadow 05:33:28 - 321° (NW) 3,312 ? -8.6°
Reaches altitude 10° 05:35:39 10° 314° (NW) 2,544 ? -8.2°
Maximum altitude 05:41:06 39° 248° (WSW) 1,301 ? -7.2°
Drops below altitude 10° 05:46:26 10° 182° (S) 2,492 ? -6.3°
Sets 05:49:00 0° 174° (S) 3,395 ? -5.8°
